カタログに戻る

STARLINK-30142

運用中通信VLEO
NORAD 56836·PAYLOAD·🇺🇸 United States

打ち上げ Jun 4, 2023 から Cape Canaveral Space Force Station

Loading…

次のパス (今後24時間)

TLE

最新Source: CelesTrak SupGP

元期: Sep 15, 2026, 02:43 UTC

1 56836C 23079P   26258.11368056  .00053564  00000+0  19394-2 0  2580
2 56836  42.9988 114.0488 0001537 276.3572 175.9530 15.27563716    18

AllMySatでSTARLINK-30142をリアルタイム追跡

Download on the App Store